When you browse on this site, cookies collect data to enhance your experience and personalize the content and advertising you see.
Visit our Privacy Policy to learn more. By continuing to use the site, you agree to this use of cookies and data.
  • In Slovakia
  • List of Countries
  • For 7 days
  • Water Temperature
  • Satellite Maps
  • Weather Map
  • Weather Widgets
  • user-avatar
    Login

    Hourly Weather Curai

    Today, 16 June, Sunday

    Time Temperature Precipitation Wind Pressure Humidity
    00:00 +14°C° 0 mm 1 mps 648 mmHg 70%
    01:00 +14°C° 0 mm 1 mps 647 mmHg 70%
    02:00 +13°C° 0 mm 1 mps 647 mmHg 69%
    03:00 +13°C° 0 mm 1 mps 647 mmHg 69%
    04:00 +14°C° 0 mm 1 mps 647 mmHg 67%
    05:00 +16°C° 0 mm 1 mps 648 mmHg 66%
    06:00 +18°C° 0 mm 1 mps 648 mmHg 64%
    07:00 +19°C° 0 mm 1 mps 648 mmHg 60%
    08:00 +20°C° 0 mm 2 mps 649 mmHg 55%
    09:00 +23°C° 0 mm 2 mps 649 mmHg 51%
    10:00 +23°C° 0.1 mm 2 mps 649 mmHg 50%
    11:00 +24°C° 0.1 mm 2 mps 649 mmHg 49%
    12:00 +24°C° 0.1 mm 3 mps 649 mmHg 49%
    13:00 +22°C° 0.5 mm 3 mps 648 mmHg 51%
    14:00 +23°C° 0.5 mm 2 mps 648 mmHg 53%
    15:00 +21°C° 0.5 mm 2 mps 648 mmHg 55%
    16:00 +20°C° 0.3 mm 2 mps 647 mmHg 60%
    17:00 +20°C° 0.3 mm 1 mps 647 mmHg 65%
    18:00 +19°C° 0.3 mm 1 mps 647 mmHg 70%
    19:00 +18°C° 0 mm 1 mps 647 mmHg 70%
    20:00 +16°C° 0 mm 1 mps 646 mmHg 69%
    21:00 +16°C° 0 mm 1 mps 646 mmHg 69%
    22:00 +15°C° 0 mm 2 mps 646 mmHg 68%
    23:00 +15°C° 0 mm 2 mps 646 mmHg 66%

    Tomorrow, 17 June, Monday

    Time Temperature Precipitation Wind Pressure Humidity
    00:00 +15°C° 0 mm 2 mps 646 mmHg 65%
    01:00 +15°C° 0 mm 2 mps 646 mmHg 65%
    02:00 +15°C° 0 mm 2 mps 645 mmHg 64%
    03:00 +15°C° 0 mm 2 mps 645 mmHg 64%
    04:00 +16°C° 0 mm 1 mps 646 mmHg 64%
    05:00 +18°C° 0 mm 1 mps 646 mmHg 64%
    06:00 +19°C° 0 mm 1 mps 646 mmHg 63%
    07:00 +20°C° 0 mm 1 mps 647 mmHg 59%
    08:00 +21°C° 0 mm 2 mps 648 mmHg 55%
    09:00 +23°C° 0 mm 2 mps 648 mmHg 51%
    10:00 +23°C° 0.5 mm 2 mps 648 mmHg 53%
    11:00 +23°C° 0.5 mm 2 mps 648 mmHg 55%
    12:00 +23°C° 0.5 mm 2 mps 648 mmHg 58%
    13:00 +23°C° 0.8 mm 2 mps 648 mmHg 58%
    14:00 +21°C° 0.8 mm 2 mps 647 mmHg 59%
    15:00 +22°C° 0.8 mm 1 mps 647 mmHg 60%
    16:00 +22°C° 0.5 mm 1 mps 647 mmHg 62%
    17:00 +22°C° 0.5 mm 1 mps 647 mmHg 64%
    18:00 +21°C° 0.5 mm 1 mps 647 mmHg 65%
    19:00 +20°C° 0 mm 1 mps 647 mmHg 68%
    20:00 +18°C° 0 mm 1 mps 647 mmHg 71%
    21:00 +16°C° 0 mm 1 mps 647 mmHg 73%
    22:00 +16°C° 0.2 mm 1 mps 647 mmHg 73%
    23:00 +16°C° 0.2 mm 1 mps 647 mmHg 73%

    Day after tomorrow, 18 June, Tuesday

    Time Temperature Precipitation Wind Pressure Humidity
    00:00 +16°C° 0.2 mm 2 mps 647 mmHg 72%
    01:00 +16°C° 0.4 mm 2 mps 647 mmHg 73%
    02:00 +15°C° 0.4 mm 2 mps 647 mmHg 74%
    03:00 +15°C° 0.4 mm 2 mps 647 mmHg 75%
    04:00 +16°C° 0 mm 1 mps 647 mmHg 72%
    05:00 +18°C° 0 mm 1 mps 647 mmHg 70%
    06:00 +19°C° 0 mm 1 mps 648 mmHg 67%
    07:00 +20°C° 0 mm 1 mps 648 mmHg 63%
    08:00 +20°C° 0 mm 2 mps 649 mmHg 59%
    09:00 +21°C° 0 mm 2 mps 649 mmHg 55%
    10:00 +21°C° 0.2 mm 3 mps 649 mmHg 55%
    11:00 +21°C° 0.2 mm 3 mps 649 mmHg 55%
    12:00 +22°C° 0.2 mm 3 mps 649 mmHg 55%
    13:00 +20°C° 0.4 mm 3 mps 649 mmHg 59%
    14:00 +19°C° 0.4 mm 2 mps 648 mmHg 64%
    15:00 +18°C° 0.4 mm 2 mps 647 mmHg 69%
    16:00 +17°C° 0.2 mm 2 mps 647 mmHg 70%
    17:00 +18°C° 0.2 mm 1 mps 648 mmHg 71%
    18:00 +18°C° 0.2 mm 1 mps 648 mmHg 72%
    19:00 +16°C° 0 mm 1 mps 647 mmHg 72%
    20:00 +16°C° 0 mm 1 mps 647 mmHg 73%
    21:00 +15°C° 0 mm 1 mps 647 mmHg 74%
    22:00 +15°C° 0 mm 1 mps 647 mmHg 74%
    23:00 +14°C° 0 mm 1 mps 647 mmHg 74%

    19 June, Wednesday

    Time Temperature Precipitation Wind Pressure Humidity
    00:00 +14°C° 0 mm 1 mps 647 mmHg 75%
    01:00 +14°C° 0 mm 1 mps 647 mmHg 73%
    02:00 +15°C° 0 mm 1 mps 647 mmHg 72%
    03:00 +15°C° 0 mm 1 mps 647 mmHg 71%
    04:00 +15°C° 0.2 mm 1 mps 647 mmHg 72%
    05:00 +15°C° 0.2 mm 1 mps 647 mmHg 73%
    06:00 +15°C° 0.2 mm 1 mps 647 mmHg 74%
    07:00 +16°C° 0.2 mm 1 mps 647 mmHg 75%
    08:00 +16°C° 0.2 mm 1 mps 647 mmHg 75%
    09:00 +18°C° 0.2 mm 1 mps 648 mmHg 76%
    10:00 +18°C° 0.2 mm 2 mps 648 mmHg 68%
    11:00 +20°C° 0.2 mm 2 mps 649 mmHg 60%
    12:00 +22°C° 0.2 mm 3 mps 649 mmHg 52%
    13:00 +21°C° 0.4 mm 2 mps 649 mmHg 56%
    14:00 +21°C° 0.4 mm 2 mps 648 mmHg 59%
    15:00 +20°C° 0.4 mm 2 mps 648 mmHg 63%
    16:00 +19°C° 0.3 mm 2 mps 648 mmHg 66%
    17:00 +20°C° 0.3 mm 1 mps 648 mmHg 69%
    18:00 +19°C° 0.3 mm 1 mps 648 mmHg 72%
    19:00 +18°C° 0.1 mm 1 mps 647 mmHg 74%
    20:00 +16°C° 0.1 mm 1 mps 647 mmHg 75%
    21:00 +15°C° 0.1 mm 1 mps 647 mmHg 76%
    22:00 +15°C° 0 mm 1 mps 647 mmHg 75%
    23:00 +15°C° 0 mm 1 mps 647 mmHg 73%

    20 June, Thursday

    Time Temperature Precipitation Wind Pressure Humidity
    00:00 +14°C° 0 mm 2 mps 647 mmHg 72%
    01:00 +14°C° 0 mm 1 mps 647 mmHg 72%
    02:00 +14°C° 0 mm 1 mps 647 mmHg 71%
    03:00 +14°C° 0 mm 1 mps 646 mmHg 71%
    04:00 +15°C° 0 mm 1 mps 647 mmHg 69%
    05:00 +16°C° 0 mm 1 mps 647 mmHg 67%
    06:00 +18°C° 0 mm 1 mps 648 mmHg 65%
    07:00 +20°C° 0.1 mm 1 mps 648 mmHg 62%
    08:00 +20°C° 0.1 mm 2 mps 649 mmHg 59%
    09:00 +21°C° 0.1 mm 2 mps 649 mmHg 57%
    10:00 +21°C° 0.4 mm 2 mps 649 mmHg 57%
    11:00 +21°C° 0.4 mm 2 mps 649 mmHg 57%
    12:00 +21°C° 0.4 mm 3 mps 649 mmHg 57%
    13:00 +19°C° 1.6 mm 2 mps 648 mmHg 65%
    14:00 +18°C° 1.6 mm 2 mps 647 mmHg 74%
    15:00 +16°C° 1.6 mm 2 mps 647 mmHg 82%
    16:00 +18°C° 0.1 mm 1 mps 647 mmHg 80%
    17:00 +18°C° 0.1 mm 1 mps 647 mmHg 77%
    18:00 +19°C° 0.1 mm 1 mps 647 mmHg 75%
    19:00 +18°C° 0.2 mm 1 mps 647 mmHg 76%
    20:00 +16°C° 0.2 mm 1 mps 647 mmHg 78%
    21:00 +15°C° 0.2 mm 1 mps 647 mmHg 80%
    22:00 +14°C° 0.1 mm 1 mps 647 mmHg 78%
    23:00 +14°C° 0.1 mm 1 mps 647 mmHg 76%

    21 June, Friday

    Time Temperature Precipitation Wind Pressure Humidity
    00:00 +14°C° 0.1 mm 2 mps 647 mmHg 75%
    01:00 +14°C° 0 mm 2 mps 647 mmHg 72%
    02:00 +14°C° 0 mm 2 mps 647 mmHg 70%
    03:00 +14°C° 0 mm 2 mps 647 mmHg 67%
    04:00 +15°C° 0 mm 2 mps 647 mmHg 67%
    05:00 +16°C° 0 mm 1 mps 648 mmHg 66%
    06:00 +16°C° 0 mm 1 mps 648 mmHg 65%
    07:00 +18°C° 0 mm 1 mps 649 mmHg 62%
    08:00 +19°C° 0 mm 1 mps 649 mmHg 58%
    09:00 +19°C° 0 mm 2 mps 650 mmHg 55%
    10:00 +20°C° 0 mm 2 mps 650 mmHg 53%
    11:00 +20°C° 0 mm 3 mps 650 mmHg 52%
    12:00 +21°C° 0 mm 4 mps 651 mmHg 50%
    13:00 +21°C° 0 mm 3 mps 651 mmHg 53%
    14:00 +20°C° 0 mm 3 mps 650 mmHg 55%
    15:00 +20°C° 0 mm 3 mps 650 mmHg 58%
    16:00 +19°C° 0 mm 2 mps 650 mmHg 59%
    17:00 +19°C° 0 mm 2 mps 650 mmHg 61%
    18:00 +20°C° 0 mm 1 mps 650 mmHg 63%
    19:00 +18°C° 0 mm 1 mps 649 mmHg 67%
    20:00 +16°C° 0 mm 1 mps 649 mmHg 70%
    21:00 +15°C° 0 mm 1 mps 649 mmHg 74%
    22:00 +14°C° 0 mm 1 mps 648 mmHg 73%
    23:00 +14°C° 0 mm 1 mps 648 mmHg 73%
    Show more